sat.trackr.live / text

‹ back to catalog

STARLINK-34890

NORAD 65760 · 2025-216AC

PAYLOAD ACTIVE UNKNOWN

§ Identity

Operator
Country
US
Launch date
2025-09-25
Launch site
AFETR
Launch vehicle
Mass (kg)
RCS (m²)

Purposes: comms

External: N2YO · Heavens-Above · Gunter

§ Orbital elements

Epoch: 2026-09-19T22:59:05.820864Z

Period
93.85 min
Inclination
53.1574°
Eccentricity
0.0000799
Mean motion
15.34404140 rev/d
Perigee alt
462.1 km
Apogee alt
463.2 km
Semi-major
6,840.8 km
B*
5.0718e-4
RAAN
147.9282°
Arg perigee
82.8457°
Mean anomaly
277.2636°
Rev number
5,631

§ Raw data

STARLINK-348901 65760U 25216AC  26262.95770626  .00016800  00000+0  50718-3 0  99982 65760  53.1574 147.9282 0000799  82.8457 277.2636 15.34404140 56317

JSON: /api/v1/satellites/65760 · /tle

For live sub-satellite position, see the globe view (requires WebGL).

§ Visibility from observer

Set your observer location to see the next 7 days of passes ≥ 10°. The values pass through the URL so the page stays shareable.

No JS? Fill the form by hand. The geolocation button needs JavaScript.